Time,TemperatureF,DewpointF,PressureIn,WindDirection,WindDirectionDegrees,WindSpeedMPH,WindSpeedGustMPH,Humidity,HourlyPrecipIn,Conditions,Clouds,dailyrainin,SoftwareType,DateUTC
2013-08-27 00:08:00,76.6,73.0,30.09,NE,46,0.0,0.0,89,0.00,,,0.00,weatherlink.com 1.10,2013-08-27 04:08:00,
2013-08-27 00:23:00,76.9,74.0,30.08,NE,43,0.0,0.0,89,0.00,,,0.00,weatherlink.com 1.10,2013-08-27 04:23:00,
2013-08-27 00:38:00,77.2,74.0,30.07,West,276,0.0,0.0,88,0.00,,,0.00,weatherlink.com 1.10,2013-08-27 04:38:00,
2013-08-27 00:53:00,77.2,73.0,30.07,West,278,0.0,0.0,87,0.00,,,0.00,weatherlink.com 1.10,2013-08-27 04:53:00,
2013-08-27 01:08:00,76.7,73.0,30.07,West,278,0.0,0.0,89,0.00,,,0.00,weatherlink.com 1.10,2013-08-27 05:08:00,
2013-08-27 01:23:00,76.3,74.0,30.08,West,280,0.0,0.0,91,0.00,,,0.00,weatherlink.com 1.10,2013-08-27 05:23:00,
2013-08-27 01:38:00,76.4,73.0,30.07,West,274,2.0,5.0,90,0.00,,,0.00,weatherlink.com 1.10,2013-08-27 05:38:00,
2013-08-27 01:53:00,76.7,73.0,30.06,WSW,252,2.0,7.0,89,0.00,,,0.00,weatherlink.com 1.10,2013-08-27 05:53:00,
2013-08-27 02:08:00,76.4,74.0,30.06,West,262,0.0,2.0,91,0.00,,,0.00,weatherlink.com 1.10,2013-08-27 06:08:00,
2013-08-27 02:23:00,75.9,74.0,30.05,West,262,0.0,0.0,92,0.00,,,0.00,weatherlink.com 1.10,2013-08-27 06:23:00,
2013-08-27 02:38:00,75.5,73.0,30.05,WNW,293,0.0,0.0,93,0.00,,,0.00,weatherlink.com 1.10,2013-08-27 06:38:00,
2013-08-27 02:53:00,75.4,74.0,30.05,WNW,290,0.0,0.0,94,0.00,,,0.00,weatherlink.com 1.10,2013-08-27 06:53:00,
2013-08-27 03:08:00,75.1,73.0,30.05,WNW,287,0.0,2.0,94,0.00,,,0.00,weatherlink.com 1.10,2013-08-27 07:08:00,
2013-08-27 03:23:00,75.2,73.0,30.05,WNW,285,2.0,3.0,94,0.00,,,0.00,weatherlink.com 1.10,2013-08-27 07:23:00,
2013-08-27 03:38:00,75.1,73.0,30.05,WNW,290,0.0,1.0,94,0.00,,,0.00,weatherlink.com 1.10,2013-08-27 07:38:00,
2013-08-27 03:53:00,75.0,73.0,30.05,WNW,295,1.0,2.0,94,0.00,,,0.00,weatherlink.com 1.10,2013-08-27 07:53:00,
2013-08-27 04:08:00,75.3,73.0,30.05,WNW,288,1.0,2.0,93,0.00,,,0.00,weatherlink.com 1.10,2013-08-27 08:08:00,
2013-08-27 04:23:00,75.5,73.0,30.05,WSW,245,0.0,2.0,92,0.00,,,0.00,weatherlink.com 1.10,2013-08-27 08:23:00,
2013-08-27 04:38:00,75.4,73.0,30.05,West,269,0.0,0.0,92,0.00,,,0.00,weatherlink.com 1.10,2013-08-27 08:38:00,
2013-08-27 04:53:00,75.4,73.0,30.05,WSW,255,0.0,0.0,91,0.00,,,0.00,weatherlink.com 1.10,2013-08-27 08:53:00,
2013-08-27 05:08:00,75.5,73.0,30.04,West,267,1.0,3.0,92,0.00,,,0.00,weatherlink.com 1.10,2013-08-27 09:08:00,
2013-08-27 05:23:00,75.6,73.0,30.04,West,276,0.0,0.0,92,0.00,,,0.00,weatherlink.com 1.10,2013-08-27 09:23:00,
2013-08-27 05:38:00,75.2,73.0,30.04,WNW,290,0.0,0.0,93,0.00,,,0.00,weatherlink.com 1.10,2013-08-27 09:38:00,
2013-08-27 05:53:00,75.1,73.0,30.04,WNW,294,1.0,3.0,94,0.00,,,0.00,weatherlink.com 1.10,2013-08-27 09:53:00,
2013-08-27 06:08:00,75.2,74.0,30.05,West,274,0.0,3.0,95,0.00,,,0.00,weatherlink.com 1.10,2013-08-27 10:08:00,
2013-08-27 06:23:00,75.1,74.0,30.05,WNW,291,0.0,0.0,95,0.00,,,0.00,weatherlink.com 1.10,2013-08-27 10:23:00,
2013-08-27 06:38:00,74.9,73.0,30.05,WNW,283,0.0,0.0,95,0.00,,,0.00,weatherlink.com 1.10,2013-08-27 10:38:00,
2013-08-27 06:53:00,75.0,74.0,30.05,WNW,283,0.0,0.0,95,0.00,,,0.00,weatherlink.com 1.10,2013-08-27 10:53:00,
2013-08-27 07:08:00,75.0,74.0,30.04,WNW,283,0.0,0.0,95,0.00,,,0.00,weatherlink.com 1.10,2013-08-27 11:08:00,
2013-08-27 07:23:00,75.3,74.0,30.05,WNW,283,0.0,0.0,95,0.00,,,0.00,weatherlink.com 1.10,2013-08-27 11:23:00,
2013-08-27 07:38:00,75.7,74.0,30.05,WNW,283,0.0,0.0,94,0.00,,,0.00,weatherlink.com 1.10,2013-08-27 11:38:00,
2013-08-27 07:53:00,75.8,74.0,30.06,WNW,287,0.0,0.0,94,0.00,,,0.00,weatherlink.com 1.10,2013-08-27 11:53:00,
2013-08-27 08:08:00,76.0,74.0,30.06,WNW,285,1.0,3.0,94,0.00,,,0.00,weatherlink.com 1.10,2013-08-27 12:08:00,
2013-08-27 08:23:00,76.5,74.0,30.06,WNW,284,2.0,5.0,93,0.00,,,0.00,weatherlink.com 1.10,2013-08-27 12:23:00,
2013-08-27 08:38:00,76.9,75.0,30.07,WNW,284,0.0,5.0,93,0.00,,,0.00,weatherlink.com 1.10,2013-08-27 12:38:00,
2013-08-27 08:53:00,77.6,76.0,30.07,NW,313,0.0,2.0,93,0.00,,,0.00,weatherlink.com 1.10,2013-08-27 12:53:00,
2013-08-27 09:08:00,75.8,74.0,30.08,NNE,33,4.0,13.0,94,0.03,,,0.03,weatherlink.com 1.10,2013-08-27 13:08:00,
2013-08-27 09:23:00,75.2,74.0,30.09,NE,36,7.0,9.0,95,0.03,,,0.03,weatherlink.com 1.10,2013-08-27 13:23:00,
2013-08-27 09:38:00,74.8,73.0,30.09,NE,50,2.0,6.0,95,0.05,,,0.05,weatherlink.com 1.10,2013-08-27 13:38:00,
2013-08-27 09:53:00,75.5,74.0,30.09,ENE,65,0.0,3.0,94,0.05,,,0.05,weatherlink.com 1.10,2013-08-27 13:53:00,
2013-08-27 10:08:00,78.5,75.0,30.09,NNE,26,0.0,0.0,90,0.02,,,0.05,weatherlink.com 1.10,2013-08-27 14:08:00,
2013-08-27 10:24:00,80.8,74.0,30.10,NE,44,0.0,1.0,80,0.02,,,0.05,weatherlink.com 1.10,2013-08-27 14:24:00,
2013-08-27 10:39:00,81.4,74.0,30.10,West,274,0.0,3.0,79,0.00,,,0.05,weatherlink.com 1.10,2013-08-27 14:39:00,
2013-08-27 10:54:00,81.1,75.0,30.10,WSW,252,3.0,8.0,82,0.00,,,0.05,weatherlink.com 1.10,2013-08-27 14:54:00,
2013-08-27 11:09:00,82.7,75.0,30.09,North,11,1.0,4.0,77,0.00,,,0.05,weatherlink.com 1.10,2013-08-27 15:09:00,
2013-08-27 11:24:00,82.4,74.0,30.10,West,269,5.0,6.0,75,0.00,,,0.05,weatherlink.com 1.10,2013-08-27 15:24:00,
2013-08-27 11:39:00,80.4,73.0,30.10,NNW,344,0.0,5.0,79,0.00,,,0.05,weatherlink.com 1.10,2013-08-27 15:39:00,
2013-08-27 11:54:00,79.6,71.0,30.11,NNE,33,4.0,8.0,75,0.00,,,0.05,weatherlink.com 1.10,2013-08-27 15:54:00,
2013-08-27 12:09:00,77.3,73.0,30.12,NE,49,4.0,14.0,85,0.00,,,0.05,weatherlink.com 1.10,2013-08-27 16:09:00,
2013-08-27 12:24:00,74.4,72.0,30.10,NNE,29,2.0,16.0,91,0.06,,,0.11,weatherlink.com 1.10,2013-08-27 16:24:00,
2013-08-27 12:39:00,73.3,71.0,30.09,NE,36,0.0,5.0,93,0.10,,,0.15,weatherlink.com 1.10,2013-08-27 16:39:00,
2013-08-27 12:54:00,73.8,72.0,30.08,NNE,33,0.0,2.0,94,0.10,,,0.15,weatherlink.com 1.10,2013-08-27 16:54:00,
2013-08-27 13:09:00,75.3,72.0,30.08,ENE,57,2.0,5.0,90,0.10,,,0.15,weatherlink.com 1.10,2013-08-27 17:09:00,
2013-08-27 13:24:00,78.2,74.0,30.08,ESE,106,0.0,0.0,86,0.03,,,0.15,weatherlink.com 1.10,2013-08-27 17:24:00,
2013-08-27 13:39:00,79.8,72.0,30.07,ENE,65,0.0,0.0,78,0.00,,,0.15,weatherlink.com 1.10,2013-08-27 17:39:00,
2013-08-27 13:54:00,80.5,72.0,30.06,NE,46,0.0,0.0,76,0.00,,,0.15,weatherlink.com 1.10,2013-08-27 17:54:00,
2013-08-27 14:10:00,81.1,73.0,30.07,NE,49,2.0,4.0,77,0.00,,,0.15,weatherlink.com 1.10,2013-08-27 18:10:00,
2013-08-27 14:24:00,81.4,74.0,30.06,ENE,70,3.0,7.0,77,0.00,,,0.15,weatherlink.com 1.10,2013-08-27 18:24:00,
2013-08-27 14:39:00,81.9,74.0,30.05,ESE,120,5.0,6.0,76,0.00,,,0.15,weatherlink.com 1.10,2013-08-27 18:39:00,
2013-08-27 14:54:00,82.3,74.0,30.05,East,86,3.0,5.0,77,0.00,,,0.15,weatherlink.com 1.10,2013-08-27 18:54:00,
2013-08-27 15:09:00,81.5,73.0,30.05,ENE,74,3.0,6.0,76,0.00,,,0.15,weatherlink.com 1.10,2013-08-27 19:09:00,
2013-08-27 15:24:00,81.6,74.0,30.05,NE,36,3.0,4.0,77,0.00,,,0.15,weatherlink.com 1.10,2013-08-27 19:24:00,
2013-08-27 15:39:00,81.4,73.0,30.05,NE,53,4.0,5.0,76,0.00,,,0.15,weatherlink.com 1.10,2013-08-27 19:39:00,
2013-08-27 15:54:00,81.4,74.0,30.04,East,96,3.0,6.0,78,0.00,,,0.15,weatherlink.com 1.10,2013-08-27 19:54:00,
2013-08-27 16:09:00,81.8,75.0,30.04,ENE,68,5.0,6.0,79,0.00,,,0.15,weatherlink.com 1.10,2013-08-27 20:09:00,
2013-08-27 16:24:00,81.9,74.0,30.04,East,79,4.0,6.0,76,0.00,,,0.15,weatherlink.com 1.10,2013-08-27 20:24:00,
2013-08-27 16:39:00,81.7,74.0,30.03,ENE,72,3.0,7.0,78,0.00,,,0.15,weatherlink.com 1.10,2013-08-27 20:39:00,
2013-08-27 16:54:00,82.2,75.0,30.03,ENE,65,6.0,6.0,78,0.00,,,0.15,weatherlink.com 1.10,2013-08-27 20:54:00,
2013-08-27 17:09:00,81.9,74.0,30.03,ENE,77,4.0,6.0,76,0.00,,,0.15,weatherlink.com 1.10,2013-08-27 21:09:00,
2013-08-27 17:54:00,82.0,74.0,30.04,NE,51,2.0,6.0,77,0.00,,,0.15,weatherlink.com 1.10,2013-08-27 21:54:00,
2013-08-27 18:09:00,81.8,74.0,30.04,NE,41,3.0,5.0,77,0.00,,,0.15,weatherlink.com 1.10,2013-08-27 22:09:00,
2013-08-27 18:24:00,82.1,74.0,30.04,North,6,2.0,4.0,75,0.00,,,0.15,weatherlink.com 1.10,2013-08-27 22:24:00,
2013-08-27 18:39:00,82.2,73.0,30.04,NE,53,4.0,4.0,74,0.00,,,0.15,weatherlink.com 1.10,2013-08-27 22:39:00,
2013-08-27 18:54:00,81.6,73.0,30.05,ENE,66,3.0,4.0,76,0.00,,,0.15,weatherlink.com 1.10,2013-08-27 22:54:00,
2013-08-27 19:09:00,80.9,73.0,30.05,NE,43,3.0,6.0,78,0.00,,,0.15,weatherlink.com 1.10,2013-08-27 23:09:00,
2013-08-27 19:24:00,80.7,73.0,30.05,NE,43,2.0,5.0,78,0.00,,,0.15,weatherlink.com 1.10,2013-08-27 23:24:00,
2013-08-27 19:39:00,80.3,73.0,30.05,NE,56,2.0,5.0,79,0.00,,,0.15,weatherlink.com 1.10,2013-08-27 23:39:00,
2013-08-27 19:54:00,80.1,73.0,30.05,ENE,58,1.0,4.0,80,0.00,,,0.15,weatherlink.com 1.10,2013-08-27 23:54:00,
2013-08-27 20:09:00,80.1,74.0,30.06,ENE,72,3.0,5.0,81,0.00,,,0.15,weatherlink.com 1.10,2013-08-28 00:09:00,
2013-08-27 20:24:00,80.2,74.0,30.06,ENE,64,4.0,4.0,82,0.00,,,0.15,weatherlink.com 1.10,2013-08-28 00:24:00,
2013-08-27 20:39:00,80.3,74.0,30.06,ENE,72,2.0,6.0,81,0.00,,,0.15,weatherlink.com 1.10,2013-08-28 00:39:00,
2013-08-27 20:54:00,80.4,74.0,30.06,ENE,71,3.0,5.0,81,0.00,,,0.15,weatherlink.com 1.10,2013-08-28 00:54:00,
2013-08-27 21:09:00,80.5,74.0,30.05,East,92,6.0,9.0,80,0.00,,,0.15,weatherlink.com 1.10,2013-08-28 01:09:00,
2013-08-27 21:24:00,79.6,73.0,30.05,ESE,113,4.0,6.0,81,0.00,,,0.15,weatherlink.com 1.10,2013-08-28 01:24:00,
2013-08-27 21:39:00,79.3,73.0,30.05,East,89,2.0,5.0,81,0.00,,,0.15,weatherlink.com 1.10,2013-08-28 01:39:00,
2013-08-27 21:54:00,79.0,73.0,30.05,East,101,0.0,2.0,81,0.00,,,0.15,weatherlink.com 1.10,2013-08-28 01:54:00,
2013-08-27 22:09:00,79.1,73.0,30.06,East,92,0.0,0.0,82,0.00,,,0.15,weatherlink.com 1.10,2013-08-28 02:09:00,
2013-08-27 22:24:00,78.6,73.0,30.06,East,91,0.0,0.0,84,0.00,,,0.15,weatherlink.com 1.10,2013-08-28 02:24:00,
2013-08-27 22:39:00,78.8,74.0,30.06,NE,55,0.0,0.0,85,0.00,,,0.15,weatherlink.com 1.10,2013-08-28 02:39:00,
2013-08-27 22:54:00,79.2,75.0,30.07,ENE,71,0.0,0.0,86,0.00,,,0.15,weatherlink.com 1.10,2013-08-28 02:54:00,
2013-08-27 23:09:00,79.1,75.0,30.07,ESE,110,2.0,4.0,87,0.00,,,0.15,weatherlink.com 1.10,2013-08-28 03:09:00,
2013-08-27 23:24:00,78.8,75.0,30.08,ESE,113,0.0,2.0,88,0.00,,,0.15,weatherlink.com 1.10,2013-08-28 03:24:00,
2013-08-27 23:39:00,78.6,75.0,30.07,ESE,113,0.0,0.0,88,0.00,,,0.15,weatherlink.com 1.10,2013-08-28 03:39:00,
2013-08-27 23:54:00,78.8,75.0,30.07,ESE,109,0.0,0.0,88,0.00,,,0.15,weatherlink.com 1.10,2013-08-28 03:54:00,